RH
20 30 36 37 38 34 32 31 29 28 33 40 39 33 33 34 31 25 22 22 24 30 28 29 34 32 32 32 29 28 26 24 24 25 28 31 33 33 36 40 37 34 29 26 24 23 24 22 25 33 35 35 34 35 37 40 42 44 47 50 52 53 53 52 53 53 53 52 50 48 47 46 46 45 42 40 38 37 39 42 43 48 51 51 50 46
23 36 38 34 31 29 33 30 27 32 35 35 32 31 33 32 29 24 25 25 23 29 30 28 32 31 30 29 27 27 26 26 26 29 33 33 33 35 36 36 31 26 23 20 20 22 24 25 29 34 34 35 34 36 41 44 50 56 57 58 57 56 54 54 56 59 63 64 62 60 56 53 50 50 49 47 45 43 44 44 47 50 51 52 56 57
32 36 31 28 26 27 34 31 28 35 36 31 29 33 35 32 33 29 27 28 23 27 30 27 32 32 28 28 27 28 29 31 32 32 34 34 35 37 34 30 26 22 19 18 21 24 26 28 32 34 32 33 35 39 45 50 56 60 59 58 56 54 54 53 51 53 57 61 67 69 66 62 57 56 56 54 52 51 50 49 50 51 49 49 50 51
35 31 24 26 26 25 30 31 31 35 35 33 31 35 37 35 40 40 33 30 26 29 30 26 34 36 31 31 31 31 33 34 35 33 33 34 37 37 32 29 26 22 20 19 23 26 27 31 34 32 32 35 40 45 51 57 60 58 56 55 54 54 54 51 48 52 55 58 63 67 66 66 64 62 61 60 57 55 55 54 52 50 48 49 48 49
34 25 22 27 26 24 30 33 35 37 36 37 34 33 36 36 39 40 36 32 28 35 36 28 34 39 34 35 35 33 34 33 32 33 33 34 35 35 33 31 27 22 18 18 24 27 26 31 35 31 33 41 47 52 56 59 60 58 56 54 53 55 57 58 58 60 65 68 68 64 61 61 63 67 70 70 68 62 57 54 52 50 48 49 48 49
35 25 24 31 28 26 32 35 36 38 38 39 35 31 33 35 37 38 37 37 34 36 37 30 35 41 36 34 35 34 34 32 32 33 33 33 33 33 31 27 25 23 20 19 24 27 25 28 33 32 37 46 53 58 59 58 57 59 58 56 56 58 62 69 69 65 71 82 84 76 68 63 69 83 87 82 80 77 72 66 61 58 55 53 53 54
33 26 28 31 30 30 32 33 33 35 41 41 34 33 35 35 41 43 40 44 43 34 33 31 34 40 37 35 36 37 38 35 33 34 32 33 33 31 28 23 20 20 21 22 24 26 26 28 32 38 45 51 56 60 60 57 57 61 61 61 62 63 66 73 71 65 69 79 88 91 88 84 89 99 99 89 84 84 85 83 77 73 69 65 62 62
34 32 34 34 31 31 32 33 30 31 42 43 32 32 38 36 39 41 39 44 39 28 31 29 28 35 36 37 38 38 41 40 37 37 35 35 33 29 27 23 20 19 19 22 25 26 28 31 35 44 50 51 53 54 54 56 60 64 64 63 65 66 68 72 71 67 69 73 81 93 97 96 98 99 99 93 85 84 86 86 83 80 77 72 67 66
38 39 42 39 33 32 32 32 28 29 38 38 32 34 37 36 37 36 39 39 30 32 39 27 24 36 35 36 44 43 42 42 41 44 41 34 31 29 25 21 18 18 19 21 25 27 30 37 44 49 50 49 50 51 54 59 64 65 64 64 67 69 69 71 70 70 74 73 76 87 92 90 89 87 87 83 77 78 80 80 82 80 78 75 71 70
38 37 39 38 35 33 33 32 29 32 35 31 32 35 33 36 38 37 38 34 32 43 44 25 22 38 38 33 40 42 42 47 48 45 40 33 29 27 25 21 18 17 20 23 25 28 35 45 52 53 50 48 51 56 59 61 62 62 63 67 71 72 72 74 75 75 77 77 77 82 86 83 81 81 83 80 77 77 77 76 78 79 79 79 78 76
37 36 39 37 34 31 31 31 29 31 32 30 32 30 29 33 31 30 30 28 38 44 35 23 22 35 44 35 30 38 43 49 53 47 39 32 27 25 22 19 18 17 20 25 27 31 42 50 52 51 49 49 55 62 63 60 58 61 66 71 73 73 73 74 78 81 79 79 79 81 82 81 80 82 84 83 80 78 76 75 74 75 78 78 78 77
44 43 44 36 29 29 31 30 28 31 31 31 31 27 32 34 26 28 29 31 45 44 29 24 23 34 48 41 36 46 48 46 47 46 40 32 27 25 21 17 16 17 21 25 29 36 45 48 47 48 48 51 59 64 61 57 58 65 71 72 71 72 72 71 76 80 79 76 76 76 77 77 77 79 79 76 73 72 72 72 71 72 74 73 73 73
49 45 42 38 30 29 32 29 28 34 32 27 27 30 41 42 37 42 42 42 51 45 30 25 31 40 39 34 39 44 45 42 37 35 33 28 25 23 19 16 14 17 22 27 31 38 43 44 46 48 49 55 61 62 57 54 61 70 69 65 66 70 72 72 74 77 77 77 75 74 75 76 77 76 74 73 73 73 74 74 74 75 74 73 71 70
47 45 42 44 36 28 29 28 30 36 33 28 27 35 48 49 51 57 52 51 54 43 32 26 37 48 35 30 40 37 37 37 28 26 26 23 23 21 18 15 14 18 23 28 33 38 41 43 47 48 50 57 61 59 55 56 64 70 66 61 63 67 72 75 76 76 77 77 77 78 80 81 81 79 78 79 81 81 80 79 79 78 76 74 73 71
45 48 45 43 35 29 32 32 34 39 38 31 23 29 45 48 52 61 57 57 61 52 42 34 37 44 37 37 40 32 31 29 25 26 23 20 21 19 16 12 13 20 24 28 33 37 40 44 47 47 50 57 58 55 55 58 63 66 65 63 61 63 70 76 78 76 77 77 78 80 82 81 81 83 85 85 86 85 83 82 81 80 80 78 79 79
42 45 44 37 27 28 35 32 31 39 38 29 22 30 46 43 41 55 55 49 59 65 53 40 34 33 34 41 38 30 29 26 26 27 21 18 18 16 15 11 14 22 25 29 33 36 40 44 47 46 49 55 54 54 56 58 63 65 63 62 61 61 66 75 78 76 76 77 79 80 79 79 80 83 85 83 83 83 81 82 81 81 83 82 82 83
43 44 43 38 29 27 33 33 32 37 35 28 30 36 41 36 34 53 59 42 49 68 55 36 36 33 34 44 40 32 32 28 26 24 19 18 17 14 14 11 16 23 26 30 35 37 40 43 46 47 50 54 54 55 56 58 63 63 59 59 60 60 63 71 76 75 75 77 78 78 77 78 79 80 81 80 80 81 80 80 79 78 79 78 78 79
45 49 43 40 42 33 28 33 32 32 33 34 37 35 34 40 39 44 58 57 60 70 54 37 45 48 46 52 49 39 37 34 27 21 17 17 16 15 13 11 17 24 27 32 36 38 40 42 44 46 51 53 54 56 56 56 60 58 57 59 58 59 64 71 74 73 75 76 76 76 76 78 80 79 80 80 80 80 80 79 79 78 78 78 77 77
45 55 45 36 44 40 30 36 39 35 33 31 33 31 35 54 59 45 51 68 76 77 62 46 49 52 46 49 49 42 39 34 26 20 18 18 16 14 12 12 18 23 28 33 37 39 40 41 43 46 51 53 52 54 54 56 58 56 60 64 60 62 68 72 74 73 74 75 75 76 77 78 79 79 81 81 80 80 80 81 82 83 84 84 84 83
44 54 48 36 40 41 34 38 43 42 39 35 33 34 35 45 54 48 48 60 72 80 77 65 59 50 39 35 35 34 35 30 23 20 19 18 16 14 12 12 17 24 28 33 37 40 41 43 44 46 52 55 53 54 54 57 59 56 59 62 61 64 69 71 73 74 74 75 75 77 79 79 81 82 83 83 82 83 84 86 88 89 91 91 91 92
43 47 49 43 41 42 39 36 34 34 38 42 42 44 45 44 45 49 52 54 64 79 83 80 73 51 33 31 30 27 27 23 19 19 18 17 16 14 12 13 18 24 29 34 39 41 43 45 47 49 53 56 56 55 56 60 62 62 62 62 64 67 70 73 74 74 74 76 77 79 80 82 83 83 84 84 85 87 89 91 92 93 95 96 97 98
45 45 48 46 42 40 39 34 30 31 34 37 42 43 44 49 52 59 64 60 65 73 72 79 83 58 35 33 27 19 18 17 16 17 17 17 17 14 12 13 18 24 29 36 40 41 43 46 50 54 57 60 61 59 59 61 62 65 65 65 69 71 72 74 74 73 75 77 78 80 81 84 85 85 86 86 88 90 92 94 95 97 98 100 101 101
44 50 54 49 42 38 37 32 31 37 36 33 36 35 38 49 54 59 66 63 64 65 59 71 85 64 39 30 22 14 16 17 17 17 16 17 16 13 12 13 18 24 29 36 41 43 46 48 52 57 60 62 64 63 62 62 62 64 69 73 76 76 74 74 73 73 76 77 77 78 81 85 87 87 87 88 90 92 95 97 99 100 101 101 101 101
48 55 57 50 41 37 38 32 30 37 39 37 36 33 41 52 50 54 63 62 66 69 63 76 87 63 35 26 20 16 18 18 17 17 17 17 16 13 12 13 17 24 29 35 42 45 48 51 53 59 62 62 64 64 63 64 64 66 72 79 81 79 77 74 73 73 75 75 76 77 80 84 87 88 89 90 92 94 98 101 101 101 101 101 100 100
56 52 49 53 52 47 47 45 42 43 39 38 37 34 41 49 52 62 66 66 74 71 64 79 84 56 31 26 23 20 22 21 19 18 18 16 15 13 11 12 17 25 31 36 42 45 49 54 56 59 62 63 64 64 64 66 67 65 71 80 81 81 80 77 75 74 73 75 78 78 80 83 86 88 90 91 93 96 98 99 99 100 100 100 100 100
59 50 42 52 61 61 61 57 51 47 40 36 37 39 47 57 66 68 64 71 81 67 56 70 72 48 33 31 29 27 28 26 20 19 19 16 14 12 11 12 18 25 32 37 42 46 49 54 58 59 59 61 63 64 64 68 67 64 70 79 81 81 82 81 78 76 74 74 77 79 81 84 86 89 91 92 93 94 96 96 97 99 100 100 100 100
57 53 42 44 50 53 53 47 41 40 41 41 43 48 57 65 68 64 60 68 71 62 58 61 57 51 46 39 35 35 34 29 21 19 20 17 13 12 11 12 19 26 32 36 41 47 51 53 58 61 61 61 64 64 65 67 64 63 71 79 82 82 84 83 80 78 76 76 76 77 79 83 86 88 91 92 92 93 95 96 98 99 100 100 100 100
57 60 54 50 47 45 42 37 35 39 42 41 44 55 67 71 69 68 67 59 52 58 64 50 44 55 52 40 40 43 36 26 20 20 21 18 13 12 11 12 19 27 31 37 43 48 53 54 58 65 66 66 65 63 66 66 62 66 75 80 82 84 85 86 84 81 81 79 77 77 78 82 83 85 88 91 92 93 95 96 98 100 100 100 100 100
56 62 62 59 52 45 41 38 38 40 41 39 41 48 59 71 76 71 65 55 49 59 61 44 42 53 48 39 42 42 31 20 19 22 21 17 13 11 11 13 20 27 32 39 45 49 54 55 58 64 68 70 68 67 70 69 65 72 80 82 83 85 86 88 88 85 84 83 81 81 81 81 81 81 85 89 91 93 93 95 97 99 99 99 100 100
54 62 64 64 60 52 46 45 44 43 41 41 41 40 41 56 70 70 64 56 54 58 53 45 51 52 44 41 43 36 24 15 18 23 21 17 14 11 11 14 20 28 35 42 46 50 54 55 57 63 67 69 72 76 79 75 72 79 83 83 84 84 85 89 89 87 87 87 87 87 85 82 80 79 82 86 90 91 91 93 96 99 98 98 100 100
52 61 60 58 63 57 45 46 47 43 40 38 36 35 33 39 51 59 63 61 61 64 58 54 62 60 45 40 39 30 19 15 19 22 21 18 14 11 12 14 20 29 38 43 47 51 55 55 57 63 67 69 75 82 85 81 79 83 83 82 83 82 84 88 87 86 88 90 90 90 87 85 83 81 81 84 88 90 90 92 94 98 98 97 98 99
55 61 56 54 65 59 41 42 44 38 40 44 43 40 35 35 41 47 53 57 60 63 63 63 67 62 45 34 29 22 17 18 21 22 22 19 14 12 13 14 21 31 39 44 47 50 54 56 59 66 72 75 80 85 86 83 82 83 83 82 81 81 83 86 86 86 88 90 92 91 90 90 88 85 82 83 87 88 89 91 93 96 97 96 96 97
62 64 59 57 65 59 42 40 42 43 51 56 52 47 39 36 39 40 41 46 46 49 58 63 57 47 37 31 29 27 24 22 22 23 23 19 14 13 14 16 24 32 37 43 47 48 52 54 58 67 75 79 82 84 85 85 84 84 83 82 81 80 83 84 85 87 88 90 93 93 93 93 92 89 85 84 86 86 87 91 92 94 95 94 94 96
67 67 62 55 61 64 51 41 46 57 61 50 37 37 39 37 36 38 39 39 38 39 44 47 41 35 34 33 33 31 26 22 23 24 23 19 15 14 15 18 24 30 35 42 45 46 49 52 56 62 69 76 79 81 85 87 86 84 82 82 82 81 82 83 84 86 88 90 93 94 95 95 94 93 90 87 87 85 85 89 91 92 94 93 92 95
70 68 61 55 62 68 58 52 59 62 54 40 29 29 34 33 32 35 37 33 32 34 35 35 35 33 33 33 30 27 24 23 25 25 21 17 14 14 16 19 22 26 32 40 45 46 47 50 54 58 64 71 75 79 85 85 83 83 83 83 84 82 82 83 83 85 89 90 91 94 96 97 96 95 93 90 88 86 85 88 90 91 92 91 92 95
66 67 60 57 65 67 63 65 65 51 38 36 34 32 34 35 34 39 44 40 33 32 33 33 34 32 31 31 27 24 25 25 23 21 17 14 14 16 17 18 20 23 30 39 46 46 46 49 54 58 63 69 72 77 82 82 82 84 83 83 84 83 83 83 83 85 89 89 91 95 97 98 98 97 95 93 90 88 86 88 90 92 92 90 91 94
54 58 59 61 61 60 66 69 59 47 45 43 37 34 35 35 35 41 50 46 33 31 33 33 33 34 31 28 26 25 25 23 23 20 16 15 16 17 17 19 22 26 32 41 45 44 45 48 51 56 63 70 73 76 78 81 85 87 84 83 84 84 83 83 83 86 89 89 92 95 97 99 100 99 98 97 94 90 89 89 90 93 94 92 90 91
54 52 54 62 61 55 62 69 64 61 60 49 37 34 33 32 32 38 51 52 37 30 32 31 33 34 29 27 28 25 21 27 33 28 18 17 17 15 16 19 21 25 34 42 43 40 41 46 49 53 61 68 73 74 77 81 85 85 83 83 84 84 84 84 84 85 87 89 91 94 96 98 101 101 101 101 98 94 91 90 91 94 96 95 91 89
55 49 50 63 70 63 61 68 71 68 57 44 37 37 36 34 30 35 53 56 38 28 29 31 31 30 26 28 29 23 23 36 42 29 15 14 15 13 13 14 14 21 34 42 40 36 38 44 47 51 59 66 70 71 75 79 81 81 81 82 84 85 85 84 85 86 88 88 90 93 95 97 101 103 102 102 101 98 94 93 94 95 96 97 96 92
59 59 62 72 76 69 66 69 66 57 47 40 39 39 36 32 31 43 59 52 31 25 28 28 28 27 26 29 29 27 32 40 37 23 12 11 12 10 10 10 10 16 29 40 40 35 37 42 44 47 56 65 68 68 72 76 77 78 80 83 86 87 86 86 87 88 89 89 89 92 94 97 100 102 102 103 101 99 97 97 97 98 98 98 98 95
73 71 68 72 73 69 70 74 68 55 45 41 39 37 33 33 40 52 55 41 27 27 27 25 26 28 29 31 30 29 31 31 24 17 11 10 10 8 8 10 10 13 24 37 39 34 36 41 44 47 55 63 67 67 70 73 74 76 80 83 86 87 87 88 90 89 89 89 89 92 94 96 99 101 102 103 102 99 98 99 100 102 101 99 97 95
69 69 64 66 70 66 62 69 70 59 43 36 36 34 32 40 50 46 36 29 28 29 28 27 29 29 31 33 31 28 28 25 18 14 10 8 9 7 7 9 9 11 22 36 39 35 35 39 44 48 54 61 65 66 68 71 72 75 80 83 84 86 87 88 90 89 89 89 89 91 94 94 96 100 101 102 102 100 98 99 100 101 99 98 98 98
54 64 68 65 62 56 52 60 67 59 42 33 36 40 41 46 45 34 27 29 30 29 29 30 30 31 33 33 30 28 27 24 18 13 9 8 8 7 7 8 7 8 17 32 40 37 34 37 40 44 49 57 62 64 66 70 72 75 79 81 82 85 86 86 88 89 89 91 90 90 91 93 94 97 99 100 102 101 99 99 100 98 97 98 100 101
49 55 59 53 51 55 58 59 55 47 37 31 33 37 38 36 30 25 27 31 29 28 30 31 30 32 32 31 31 30 27 24 20 13 8 7 7 7 7 8 7 6 13 28 40 38 34 36 38 40 46 54 59 61 63 68 71 72 77 80 82 84 84 84 87 90 92 93 92 89 90 92 93 94 96 99 102 102 100 101 101 98 97 98 99 101
46 43 42 44 50 53 53 49 39 31 30 30 29 29 28 26 25 27 29 29 28 28 30 30 31 32 31 31 32 30 29 28 23 14 8 6 6 7 7 7 7 6 10 23 37 38 34 34 36 38 43 49 54 57 60 66 70 70 74 79 80 81 83 84 86 90 92 93 92 89 89 91 91 91 95 99 101 101 101 102 102 100 99 98 98 100
34 32 33 41 49 44 36 34 31 27 28 28 27 27 26 25 27 27 26 27 28 28 29 30 31 31 32 32 32 31 32 32 25 16 8 6 6 7 6 6 6 5 7 18 32 38 36 34 34 36 39 44 49 52 55 61 68 70 72 77 78 78 80 83 85 88 90 92 91 90 90 90 89 90 95 101 102 100 100 101 101 101 102 101 100 100
31 30 32 38 43 41 35 32 29 27 27 25 25 27 26 26 27 27 27 28 27 27 29 30 31 32 32 33 33 33 34 34 28 18 9 6 6 6 6 6 6 6 6 13 27 38 38 34 34 34 35 39 45 48 50 55 63 69 71 74 76 77 78 81 83 85 88 90 90 90 90 91 90 91 96 100 101 101 100 100 100 100 102 101 100 100
34 35 38 38 38 37 35 30 25 25 25 24 27 29 27 28 30 28 27 28 27 28 30 29 31 33 33 33 34 35 36 36 31 21 11 6 6 6 6 7 7 6 7 10 20 33 38 35 34 34 34 37 41 44 46 49 56 64 68 72 75 77 77 79 81 83 86 88 89 90 91 92 93 95 95 95 97 99 100 101 100 100 100 100 100 100
35 39 39 37 36 37 35 30 27 31 32 28 29 30 29 29 29 27 27 28 27 28 29 29 31 33 32 34 35 36 37 37 33 25 14 7 6 6 7 7 7 8 8 8 15 27 35 37 36 34 34 36 38 41 43 45 50 57 62 67 73 75 75 77 79 80 83 87 88 90 90 91 93 94 91 88 89 92 95 99 101 101 100 100 100 100
35 39 38 40 47 48 40 31 31 38 40 33 29 30 30 29 28 28 28 28 28 29 30 30 32 33 33 35 36 36 37 38 35 29 18 9 7 7 8 8 9 9 9 9 12 20 30 36 38 36 34 35 37 39 41 43 47 51 56 62 69 73 75 77 77 78 81 85 88 89 89 89 90 90 88 85 84 84 86 90 95 100 101 100 100 100
34 35 35 44 51 45 32 26 28 33 35 31 28 29 30 29 30 30 29 30 31 31 31 32 32 33 34 34 35 37 38 38 36 31 21 12 9 8 9 10 11 11 12 12 12 15 23 32 38 38 36 35 36 37 39 41 45 48 52 59 66 71 75 77 76 77 79 83 87 89 89 88 89 88 87 86 85 84 82 80 82 90 97 101 101 101
Wind_Speed
12 8 6 6 5 5 5 5 6 6 5 6 5 2 6 7 5 7 8 7 8 6 3 7 8 6 6 4 6 8 7 7 6 4 3 2 8 10 13 15 19 24 27 30 32 30 29 31 28 22 21 24 26 27 27 26 23 23 21 21 22 22 22 21 20 21 23 23 24 25 25 25 24 24 23 23 23 22 21 21 21 23 24 19 16 17
11 8 5 6 4 2 2 5 9 8 5 4 2 4 6 5 7 10 8 5 8 5 0 8 9 6 5 5 5 7 5 4 4 2 1 5 8 11 14 16 21 27 30 31 31 28 29 29 23 21 24 27 29 27 25 22 21 21 21 24 27 27 26 24 23 23 24 23 23 24 24 25 26 25 25 25 24 23 22 21 23 25 22 16 15 17
6 6 5 5 6 2 2 4 11 11 5 1 1 4 5 5 7 8 6 6 8 4 1 4 7 5 5 5 5 6 5 4 3 3 6 6 7 10 13 19 24 30 32 32 28 26 28 27 21 22 26 27 27 25 22 21 21 21 23 24 26 28 28 28 28 29 29 28 26 25 23 22 24 24 25 26 25 24 24 23 24 24 19 14 16 19
3 4 5 6 7 5 2 6 11 10 5 2 3 5 5 7 7 5 6 10 9 3 1 0 4 4 4 4 3 4 5 5 5 8 7 4 7 9 13 20 25 30 32 31 28 26 27 25 22 25 27 28 25 22 21 22 22 24 25 26 27 28 29 29 29 29 30 29 28 27 25 22 22 22 22 23 25 25 25 23 22 20 16 14 17 20
3 2 6 7 4 7 4 6 9 7 4 1 1 5 6 8 8 7 8 11 10 3 1 2 1 3 5 5 5 5 7 9 9 8 5 5 8 11 15 21 26 29 31 30 27 26 27 26 25 26 26 25 24 21 22 24 24 26 27 29 32 31 29 27 25 24 25 25 25 26 26 25 24 23 21 21 22 23 24 23 21 19 18 19 21 21
3 1 5 5 5 7 4 4 6 5 5 2 1 6 8 9 9 10 10 9 6 2 0 2 3 2 5 7 5 4 7 8 8 6 4 6 8 13 18 23 28 29 30 29 25 25 28 27 26 26 23 22 23 23 24 26 27 27 27 28 30 28 25 24 22 22 23 23 23 22 24 26 25 24 22 20 20 19 20 21 22 21 21 21 22 21
3 2 3 4 5 7 5 3 4 4 4 4 4 8 8 9 9 10 10 6 2 3 1 3 3 3 3 6 6 6 6 6 6 4 3 6 10 15 18 25 29 29 28 27 24 25 26 26 27 26 22 20 23 25 26 28 27 27 26 26 28 27 24 24 23 22 24 25 22 18 17 19 19 19 20 20 21 19 17 19 20 21 21 20 20 19
2 3 4 4 4 5 4 3 3 4 2 4 6 11 10 10 10 9 8 4 3 5 2 4 3 5 3 4 6 7 6 6 4 0 4 7 13 16 19 26 29 27 27 26 25 25 25 26 26 24 22 23 25 27 28 28 26 25 26 26 28 26 24 25 24 22 24 26 23 18 16 17 17 17 19 21 23 23 22 21 19 18 18 19 20 20
2 3 2 4 4 4 4 4 4 1 2 5 9 12 11 11 11 8 5 5 3 3 2 2 5 5 4 2 5 6 5 5 1 2 5 9 14 17 22 28 27 26 26 24 24 25 26 25 23 22 24 26 26 27 26 25 25 26 27 27 26 25 24 24 24 21 22 24 24 22 20 21 20 20 23 25 27 28 27 26 23 21 21 22 23 24
2 1 1 3 3 3 4 6 6 1 3 9 11 13 12 9 8 6 4 5 2 0 2 4 6 4 5 1 4 5 4 3 2 2 4 10 15 17 23 28 27 27 26 23 24 25 24 23 22 23 24 25 25 24 23 24 26 27 27 26 24 23 23 23 23 22 21 21 22 22 21 22 22 23 24 25 26 27 27 27 27 27 27 26 26 27
3 3 2 3 2 4 7 9 9 6 9 12 10 11 10 6 5 3 3 3 2 2 1 5 7 4 4 1 3 2 2 2 1 3 5 10 15 19 24 27 27 26 24 23 26 24 23 22 22 24 25 26 25 24 23 25 26 26 24 23 23 24 23 22 22 22 21 20 19 19 20 20 20 21 22 22 23 24 25 26 27 27 27 26 27 27
3 3 1 2 2 7 8 8 6 10 10 9 6 7 6 2 2 1 2 2 1 3 1 6 7 3 3 2 2 2 3 4 1 3 5 9 14 20 25 26 26 25 22 24 26 24 23 24 24 25 26 26 25 24 25 25 26 25 22 23 25 25 24 22 21 21 21 21 20 20 19 20 20 21 23 24 25 25 26 26 27 27 27 27 27 27
1 1 0 2 1 7 6 5 1 4 4 6 5 6 5 2 1 2 2 1 2 4 1 7 9 3 4 2 4 4 3 3 1 4 5 9 16 20 23 25 25 22 21 23 25 24 24 24 25 26 26 25 24 23 25 26 27 23 22 25 26 25 24 23 22 21 22 22 21 21 20 21 22 22 23 24 24 24 24 25 26 26 27 28 28 27
1 1 1 1 1 5 4 3 2 1 4 5 6 6 4 3 4 4 4 3 3 4 4 9 9 4 4 2 4 5 5 3 2 3 6 11 17 19 21 23 22 19 20 23 24 23 23 24 25 25 25 24 23 23 24 25 26 23 21 23 24 26 25 22 22 21 21 22 21 21 20 20 20 20 20 21 21 22 22 23 25 26 27 28 29 29
2 2 2 1 1 3 4 2 1 2 3 3 3 4 3 3 2 2 3 4 6 8 9 9 5 3 4 2 5 7 8 5 1 4 8 13 16 18 19 20 19 17 20 24 24 21 21 24 24 24 25 24 24 24 24 23 24 23 22 23 26 29 26 21 21 22 22 22 22 21 21 20 19 19 19 21 21 22 22 23 25 26 27 27 27 27
3 2 0 3 3 2 3 2 2 3 2 1 2 2 3 2 1 2 4 6 7 9 8 4 3 3 2 2 5 8 9 5 5 9 10 14 17 18 18 18 17 16 19 26 27 21 20 24 23 23 23 24 24 23 25 26 23 20 20 20 22 25 25 22 21 22 22 22 22 21 21 20 19 20 21 22 22 22 23 24 25 25 25 25 25 25
3 2 3 2 5 4 4 3 5 5 1 2 2 2 1 1 1 2 5 6 5 5 4 2 4 3 1 1 3 5 5 2 7 9 10 14 17 17 17 17 17 17 19 25 27 23 21 22 22 23 22 23 24 24 28 29 23 22 24 20 18 22 25 24 22 21 21 22 23 22 21 21 20 21 23 23 23 24 24 24 24 25 25 25 25 25
1 3 4 4 1 1 5 7 8 8 5 1 1 3 2 2 2 1 3 4 3 4 3 2 6 6 3 2 2 5 5 5 5 7 9 13 16 15 16 17 16 17 18 21 25 25 23 20 22 27 24 23 25 27 30 27 20 24 28 23 22 25 25 24 22 20 20 20 22 23 22 22 22 23 23 23 24 24 24 24 25 25 26 26 26 26
0 2 2 3 3 4 5 5 4 6 9 4 4 1 2 1 0 2 2 2 3 5 5 3 5 6 4 3 1 3 7 6 5 6 8 12 16 16 17 17 16 17 17 20 24 25 21 17 23 31 25 20 22 28 34 27 15 16 21 22 26 25 22 22 21 21 21 19 20 22 22 22 23 24 24 23 24 24 25 26 26 26 26 26 25 26
0 0 1 1 4 5 3 1 0 1 5 3 4 1 1 1 2 0 1 1 1 4 5 5 6 4 3 3 2 5 7 6 5 6 7 12 17 18 18 17 16 17 17 19 25 27 22 17 22 26 22 20 24 30 34 27 18 17 19 23 26 25 21 20 19 21 22 20 21 21 21 22 23 24 24 23 23 25 26 26 26 25 25 26 26 25
1 1 2 0 4 3 2 1 1 1 2 2 1 1 1 1 1 1 1 1 2 2 3 5 8 6 2 3 3 6 7 3 4 6 8 14 19 18 18 18 17 17 16 17 23 25 21 21 25 24 22 25 30 33 29 22 20 23 25 27 27 24 20 19 20 22 21 21 22 22 21 23 23 23 24 24 24 25 26 25 25 25 25 26 26 26
1 2 3 3 2 1 1 2 4 3 3 3 2 1 2 1 1 0 2 1 2 2 2 3 9 9 3 3 5 6 3 2 5 7 10 15 19 18 17 17 16 16 16 16 19 22 22 27 29 24 23 28 30 32 29 21 17 19 25 28 26 22 21 20 20 21 20 21 22 21 21 22 22 22 23 24 25 25 26 26 25 25 26 26 27 26
1 1 3 5 4 0 2 4 7 7 5 3 2 2 3 2 2 2 3 2 1 2 2 2 6 7 2 6 8 4 3 7 8 10 13 17 19 17 17 17 16 16 16 17 19 21 22 25 26 23 25 28 28 29 30 27 24 21 23 25 24 22 22 22 21 20 20 21 22 21 21 20 20 22 23 23 25 25 25 26 26 26 26 26 27 27
0 1 3 5 3 2 1 2 5 7 5 1 2 3 3 3 3 2 1 0 0 2 2 2 5 6 3 8 10 5 9 10 9 11 14 17 18 18 17 17 16 16 16 18 20 21 20 21 25 26 25 24 26 29 29 29 30 28 24 23 23 23 23 23 22 22 21 21 21 20 20 19 20 22 23 23 24 25 25 26 26 26 26 26 27 27
1 1 2 5 4 2 2 2 2 3 1 2 3 4 4 4 5 3 1 2 1 5 6 3 6 7 3 5 7 8 12 10 8 10 14 17 18 18 17 17 16 16 17 18 19 20 21 23 26 26 24 24 26 27 26 27 30 31 26 21 22 24 23 23 23 23 23 22 21 20 20 20 20 22 22 23 23 24 25 26 26 26 26 26 26 26
1 2 2 2 4 5 5 5 4 3 2 2 3 6 5 7 8 4 1 1 2 5 7 5 9 11 9 9 9 9 10 9 8 10 14 16 18 18 17 17 16 16 17 19 18 19 21 24 27 24 22 24 24 21 22 26 31 33 27 22 23 24 23 23 23 23 23 22 20 20 20 20 20 22 22 22 23 24 25 26 27 27 26 25 25 25
1 3 3 4 5 5 6 8 8 6 6 6 4 7 7 7 8 4 1 4 4 3 6 9 12 16 17 14 11 10 10 8 7 10 14 17 18 18 18 18 17 17 18 19 19 21 24 27 29 25 22 22 22 21 24 30 34 33 27 23 24 24 24 24 23 22 21 21 21 21 21 21 20 21 21 22 23 24 25 26 26 26 25 24 24 24
1 3 3 4 7 8 8 12 13 9 9 11 8 7 9 8 8 7 7 9 3 1 8 10 9 13 19 16 14 13 10 6 6 11 15 17 19 20 20 19 18 18 19 19 20 22 26 28 28 26 25 23 18 18 26 32 32 28 25 24 25 25 24 24 23 22 22 21 21 21 22 23 21 20 21 22 23 24 24 25 25 24 24 23 23 23
0 4 2 1 6 10 11 14 15 11 10 11 9 8 9 11 12 12 14 13 5 4 13 13 9 14 19 17 15 13 9 6 9 14 16 17 20 21 21 20 19 19 19 20 20 22 25 28 27 25 27 26 21 20 26 29 26 24 24 25 25 24 24 23 24 24 23 21 20 20 21 23 23 21 21 22 23 24 24 23 23 23 22 21 22 22
1 2 1 1 7 11 13 15 13 10 9 10 10 10 9 11 15 15 15 13 10 13 18 18 17 19 18 16 16 15 11 10 13 16 16 17 19 21 21 20 19 19 19 20 21 23 25 28 27 24 24 26 25 23 25 25 23 22 24 25 25 25 23 22 24 25 23 22 22 21 21 22 23 22 21 21 23 23 23 22 22 22 21 20 21 20
2 0 1 1 6 10 11 10 8 8 9 10 11 11 10 10 12 14 13 11 10 14 17 16 17 18 15 14 15 15 13 12 14 15 16 17 19 19 20 21 21 20 20 21 22 23 25 28 28 25 23 23 25 24 23 23 22 22 23 24 24 24 23 23 24 24 23 22 22 22 21 21 22 22 21 21 22 23 22 21 20 21 20 20 19 19
2 1 2 1 5 8 5 4 7 9 9 11 13 12 12 11 10 10 9 8 9 12 12 11 12 12 9 8 11 12 12 13 15 15 15 17 18 19 20 21 21 21 20 22 24 24 25 27 28 27 23 23 25 23 22 22 22 22 23 23 23 23 24 25 24 24 23 22 22 22 22 22 22 21 20 19 20 22 21 20 19 19 19 19 18 18
1 1 3 2 4 6 4 7 11 10 8 7 8 8 10 11 10 9 8 9 12 10 7 8 10 10 8 7 9 10 10 11 14 15 15 17 19 20 21 21 20 21 22 23 24 25 26 27 27 26 23 23 24 22 21 22 23 22 22 22 22 23 24 24 24 23 23 22 22 23 23 24 23 22 20 18 18 20 20 19 18 18 18 18 18 18
2 0 2 1 3 6 8 11 9 5 5 4 2 2 5 7 9 11 11 12 11 10 8 10 12 11 10 10 11 11 10 12 17 19 19 20 22 22 21 21 21 22 24 24 25 25 26 26 27 26 23 23 24 21 21 22 22 21 21 21 22 23 23 23 23 23 23 22 22 23 24 24 24 23 21 18 17 18 18 18 18 18 18 18 17 18
4 2 2 1 2 4 7 8 6 3 3 3 2 1 1 1 4 8 12 14 12 12 14 15 15 14 15 16 16 15 16 17 19 22 25 26 25 23 21 22 22 23 24 24 25 25 25 25 26 26 24 23 23 21 21 22 21 21 21 21 23 23 23 23 23 22 22 22 22 23 24 24 24 23 22 20 18 18 17 16 17 17 18 18 17 18
4 2 2 1 2 3 4 3 1 7 9 2 3 2 3 2 2 5 11 14 13 14 15 15 15 17 18 20 20 18 18 19 20 26 30 27 23 21 22 22 23 23 24 24 25 24 24 25 25 24 22 22 22 21 21 21 20 21 22 23 23 23 23 24 23 23 22 22 23 23 24 24 23 23 22 20 19 19 18 17 16 16 17 18 17 18
3 2 0 1 2 2 3 3 4 9 11 4 1 2 2 1 2 3 6 12 9 12 15 13 12 15 16 19 19 16 15 15 16 22 23 18 16 18 20 20 21 22 23 24 24 23 24 25 24 22 21 20 21 21 21 21 21 22 23 23 23 23 24 24 24 24 23 23 23 24 23 23 23 23 22 21 20 20 21 19 17 16 16 17 17 17
2 1 1 0 1 1 2 5 4 5 7 2 1 2 6 6 6 8 1 10 7 11 18 14 10 12 14 15 15 10 8 9 9 11 10 11 12 14 16 18 20 22 23 23 22 22 23 24 24 22 19 18 20 22 22 22 22 23 23 23 23 24 24 25 25 24 24 23 22 23 23 22 22 22 22 21 21 21 22 21 19 17 15 16 16 16
0 2 1 1 2 1 1 4 3 4 6 3 3 5 10 9 8 8 1 8 4 8 16 16 12 13 14 14 12 5 2 5 8 7 8 10 12 14 17 20 22 22 23 23 22 22 22 23 23 21 19 19 20 21 21 21 22 22 22 23 23 24 24 24 25 24 24 24 22 21 22 22 21 20 20 20 20 20 21 21 20 18 16 15 16 16
2 1 1 2 4 3 2 3 3 5 6 2 6 9 10 10 8 5 6 8 4 9 14 16 15 16 17 16 12 6 5 9 11 10 11 13 16 18 21 22 22 22 23 23 22 21 21 22 23 21 20 20 22 21 21 21 22 22 22 23 24 24 24 24 25 25 25 24 21 20 21 21 21 19 17 18 18 19 19 20 20 18 16 16 15 16
3 3 4 3 4 4 5 4 5 6 6 2 9 14 14 9 4 2 7 6 6 10 13 15 18 19 18 18 15 13 16 21 21 19 19 20 21 23 23 22 23 23 23 22 22 21 20 21 21 21 20 19 20 21 20 20 21 21 22 23 23 24 24 24 25 24 24 23 22 20 19 19 19 18 16 15 16 17 17 17 18 17 16 16 16 15
3 2 3 3 3 4 4 3 4 6 5 7 14 15 12 5 2 5 6 7 7 10 13 15 19 19 19 21 23 24 27 28 25 24 24 24 25 24 23 22 23 23 23 22 22 21 21 20 20 20 19 18 19 20 20 20 20 21 21 22 23 23 24 25 24 23 23 22 21 20 18 17 17 16 14 13 14 15 15 14 14 15 15 16 15 14
3 2 2 3 4 3 3 2 4 8 5 17 17 8 7 7 8 11 11 14 16 15 15 17 20 20 21 23 26 28 29 27 26 26 26 26 25 24 23 23 23 23 23 23 22 22 21 21 20 20 18 17 19 20 20 20 21 20 20 21 22 23 24 25 24 23 22 21 20 19 18 16 16 15 13 12 12 13 13 13 13 13 14 14 13 13
2 3 3 2 3 2 2 4 4 3 9 24 18 6 10 17 24 25 21 22 24 22 19 20 23 23 23 26 27 27 27 27 27 27 26 25 25 24 23 23 23 23 23 23 22 22 21 21 21 20 18 17 19 19 19 20 21 20 20 20 22 23 24 24 24 24 22 20 19 18 17 16 14 13 12 12 12 12 11 11 11 12 12 11 11 11
5 5 2 2 4 4 4 11 14 12 9 18 23 25 29 32 34 31 27 28 30 29 26 25 27 27 26 27 27 28 28 29 29 28 27 27 25 24 24 23 23 23 23 22 22 22 21 21 21 20 19 17 18 19 19 19 20 20 20 20 21 22 23 24 24 23 21 20 19 17 16 15 13 12 12 12 12 12 11 10 10 10 9 9 9 10
7 7 4 0 2 4 13 23 28 29 29 28 30 34 36 36 35 33 32 34 35 34 32 30 31 30 28 27 28 30 31 31 29 29 28 27 26 25 25 24 24 23 23 22 22 21 21 22 21 21 20 18 18 19 18 18 19 20 19 20 20 21 22 23 23 22 21 19 18 17 16 14 12 11 12 12 12 12 12 11 11 9 8 8 8 10
5 7 4 3 0 2 8 14 15 21 30 31 29 32 34 35 36 35 34 36 36 35 33 33 32 31 30 30 31 32 33 31 30 30 29 28 27 27 25 24 24 23 23 22 21 22 22 22 22 22 21 19 18 19 19 18 19 20 19 20 20 20 21 22 22 21 20 19 17 16 15 14 13 12 12 11 12 12 12 12 11 9 8 9 10 13
3 4 3 5 5 5 10 17 22 32 39 37 33 33 34 34 35 35 34 35 35 34 34 34 33 32 32 32 33 33 33 32 31 31 30 29 29 28 26 25 24 23 23 22 21 22 22 22 22 22 21 20 19 19 19 18 19 20 20 20 20 20 20 20 20 20 19 18 17 16 15 15 14 13 12 12 13 14 14 13 12 11 10 10 11 14
3 3 3 3 4 7 14 23 28 30 31 30 28 27 27 28 29 31 32 33 34 35 35 35 34 34 34 34 34 33 33 33 33 32 31 31 30 29 27 25 24 23 23 22 21 22 22 22 22 22 21 21 20 20 19 18 18 19 19 20 20 20 20 20 19 18 17 17 16 16 15 14 14 14 14 13 14 14 14 13 13 12 11 10 10 13
5 4 3 1 3 6 10 16 17 10 12 23 29 27 28 30 29 28 31 34 36 38 37 35 36 36 35 35 35 34 35 36 33 32 32 31 30 29 28 26 25 24 23 22 22 22 23 22 22 22 21 21 20 20 20 18 18 19 18 19 20 20 20 20 19 17 15 15 15 15 14 14 15 16 16 16 16 16 15 13 11 10 9 9 10 13
13 11 6 5 6 11 19 29 27 16 16 30 37 36 36 36 34 33 36 39 40 41 39 37 37 38 38 38 37 36 37 36 34 32 33 32 31 30 28 26 26 25 24 23 23 23 23 22 22 22 21 21 20 20 20 19 18 18 18 18 19 19 19 19 18 16 14 14 14 14 14 15 16 18 17 17 17 18 17 16 13 9 7 7 8 10
Wind_Direction
46 55 45 27 20 17 5 8 359 325 275 265 276 319 327 305 301 325 321 344 7 338 333 97 111 110 107 105 111 121 123 120 119 111 92 304 288 312 343 344 337 332 326 324 325 325 327 328 328 329 334 338 337 332 330 331 331 331 333 332 331 330 325 324 331 332 327 324 321 315 308 302 296 291 292 294 296 301 308 307 296 293 301 303 298 302
53 52 47 18 353 359 322 337 354 337 281 244 286 333 321 312 317 313 303 339 355 323 323 110 117 113 111 112 111 118 111 105 112 103 263 280 303 335 348 341 334 330 326 326 327 328 330 329 329 331 335 337 336 333 332 332 330 332 333 332 330 327 323 320 321 322 321 318 318 318 314 309 301 290 286 288 286 286 290 294 290 291 298 302 303 304
56 49 35 355 332 321 209 349 359 342 312 182 27 336 321 336 326 301 298 334 333 308 271 113 120 122 124 113 98 106 106 114 143 202 234 267 324 345 345 338 333 330 329 331 331 331 333 331 328 333 339 339 334 332 333 331 331 333 330 328 328 325 321 316 312 313 312 309 308 309 309 310 309 301 290 285 284 283 281 280 281 286 294 302 306 305
64 49 4 319 333 6 45 27 9 343 341 64 28 352 325 335 336 304 313 320 314 300 279 345 120 132 141 131 126 135 146 169 215 240 240 281 325 331 337 335 331 331 332 332 331 333 334 332 328 332 337 337 336 336 334 332 332 330 324 321 320 320 319 315 312 315 314 311 309 306 302 301 304 305 300 292 286 282 281 281 282 288 291 290 291 292
82 22 327 305 355 18 16 36 19 346 347 31 47 14 335 324 325 304 304 313 313 315 309 342 114 165 174 174 168 164 188 197 209 236 270 321 321 327 334 330 329 333 334 330 330 333 334 331 327 330 333 333 336 336 332 331 329 324 322 322 319 319 324 325 322 320 317 315 314 312 309 305 303 305 306 307 300 287 281 281 281 284 285 285 285 281
73 314 316 329 29 19 9 46 28 354 335 292 357 11 336 313 313 302 302 314 315 294 174 5 332 226 175 185 187 175 206 208 190 205 292 336 340 342 337 332 332 332 332 331 329 331 333 332 331 334 336 334 333 331 327 326 324 319 318 321 321 324 331 328 322 320 319 318 317 318 317 312 308 309 306 305 309 303 289 281 276 274 275 281 283 279
56 22 355 6 29 17 15 46 45 25 336 292 321 346 322 301 299 289 295 311 306 292 249 95 9 311 190 185 189 180 206 218 186 196 338 360 352 346 339 336 335 332 332 331 330 333 334 334 336 338 340 338 333 328 325 325 323 319 318 319 321 324 328 321 316 320 320 316 314 318 324 318 312 316 312 296 295 301 296 287 278 270 269 273 275 273
40 38 25 10 23 27 16 355 23 40 327 281 311 323 307 295 286 274 284 272 262 305 275 124 37 305 254 186 187 184 206 221 190 45 356 358 348 343 338 336 334 332 333 331 331 335 334 334 335 337 338 336 331 325 322 323 322 319 320 321 321 323 324 320 318 322 320 313 310 315 327 328 321 322 318 300 292 296 296 289 279 267 264 265 265 266
38 46 31 18 26 20 351 318 316 351 269 275 298 304 293 289 278 263 267 252 259 341 299 8 13 305 272 169 183 187 207 227 213 4 339 347 348 341 336 336 335 333 332 331 333 333 333 334 333 334 335 332 330 326 322 321 320 319 319 320 322 324 324 322 323 323 319 316 314 316 322 322 317 313 308 299 295 297 296 291 283 275 271 269 268 270
98 86 35 45 47 351 319 299 292 257 252 275 293 299 291 283 266 240 223 242 269 14 271 359 22 325 298 172 171 192 203 225 297 317 320 343 344 335 334 336 335 333 332 333 333 331 331 333 330 331 333 329 327 324 322 322 321 321 320 320 323 325 325 325 326 324 322 325 324 321 321 319 315 313 309 304 301 301 300 297 293 289 287 284 281 280
137 135 87 79 65 324 299 285 271 231 252 278 296 304 297 276 247 229 204 223 277 233 206 22 29 2 309 218 155 190 176 164 268 294 323 342 339 334 335 336 335 333 332 332 333 331 330 331 329 329 329 327 324 322 324 328 326 323 322 323 325 326 326 325 324 324 325 326 323 318 316 314 313 312 310 308 306 305 304 302 300 297 295 292 288 286
152 152 121 117 40 336 314 293 246 216 253 294 312 310 313 274 216 252 218 186 280 258 95 21 9 358 274 258 143 155 147 141 182 314 335 339 334 334 337 336 334 332 330 332 332 331 331 330 329 329 328 325 322 326 331 330 325 324 325 325 325 326 327 325 322 322 323 321 318 315 311 307 305 303 302 302 303 304 303 301 299 297 295 293 290 289
187 197 127 146 26 346 328 319 271 195 278 332 335 329 348 352 348 355 293 198 227 238 14 358 341 306 253 239 137 152 155 143 53 351 336 333 333 335 336 334 331 330 330 333 331 329 330 330 329 329 328 325 323 329 334 328 323 327 331 329 326 325 324 323 323 323 321 320 318 315 311 306 304 304 304 305 303 301 299 298 297 295 293 292 290 289
302 286 11 155 5 7 8 350 8 357 335 353 352 351 20 24 3 350 322 321 273 257 312 322 312 280 262 238 151 146 143 146 58 359 329 337 337 333 333 331 329 329 330 330 328 327 328 329 329 328 325 323 324 327 329 326 325 328 332 329 323 321 322 324 325 324 321 319 317 315 313 311 310 310 308 304 300 297 296 295 293 291 290 289 289 289
309 280 316 320 307 14 34 52 199 269 306 347 7 7 41 61 33 326 312 319 299 294 305 301 275 256 285 248 150 142 149 157 8 332 325 337 336 332 333 331 327 328 329 326 324 326 329 327 326 326 325 323 325 325 322 320 326 330 329 328 325 321 321 326 324 322 320 318 317 316 316 316 313 310 305 301 301 301 299 298 295 293 293 292 292 292
286 246 278 26 46 57 51 33 307 295 278 302 17 28 36 45 202 240 258 259 277 294 300 289 223 228 261 151 137 148 161 169 325 323 328 337 336 336 335 331 329 327 326 327 325 324 327 327 319 317 320 322 324 321 316 316 320 325 321 322 328 322 317 323 321 317 320 319 318 319 318 317 312 309 308 307 307 304 301 301 299 298 298 297 296 294
306 259 170 85 39 42 71 60 9 2 310 271 3 1 357 61 171 241 264 261 270 282 283 301 290 287 82 143 167 177 194 284 327 323 333 336 337 338 333 331 330 324 322 329 331 325 325 328 320 316 320 320 316 309 311 321 326 328 324 314 308 302 306 319 321 318 324 321 319 321 318 315 313 312 312 309 307 305 304 303 302 300 298 297 296 294
324 281 205 165 75 63 106 90 51 20 353 304 41 316 312 103 122 225 287 299 307 282 277 302 298 303 326 303 214 204 263 308 314 316 328 333 338 338 332 330 327 320 318 323 328 326 326 326 318 319 321 314 310 304 309 325 331 328 329 321 306 299 304 319 321 321 324 317 316 319 317 316 315 313 311 309 309 308 307 306 302 300 298 296 295 294
240 287 232 174 143 150 135 96 61 12 5 55 136 259 326 100 255 303 310 316 319 305 303 298 294 293 264 258 268 258 284 299 299 313 328 336 342 339 331 329 323 320 317 315 320 320 320 324 322 325 325 311 305 305 309 320 323 311 315 317 313 310 312 318 319 321 320 315 315 314 311 313 311 310 311 311 311 309 307 305 303 301 300 298 297 294
300 61 279 186 115 138 165 88 138 325 10 56 137 130 64 183 236 319 346 254 244 299 308 312 313 305 222 207 295 286 278 286 311 329 334 338 341 336 330 328 320 320 316 311 319 320 317 323 323 323 324 314 307 307 312 325 335 321 308 304 308 313 317 319 319 319 317 317 316 312 311 313 311 313 315 313 310 307 305 304 304 303 301 299 297 295
308 225 284 354 91 119 178 331 344 169 114 116 149 81 40 265 150 134 203 150 149 252 291 306 302 289 217 165 204 250 261 282 343 342 335 338 337 330 327 322 315 316 311 306 321 327 322 322 322 319 314 309 307 309 316 332 340 327 311 306 310 317 323 323 320 317 316 317 316 314 315 313 312 315 315 312 309 307 307 306 304 303 301 299 298 297
327 277 292 296 296 271 134 7 4 33 89 112 126 158 170 146 84 336 279 148 128 198 212 281 291 283 257 168 199 228 256 15 15 354 338 334 330 325 322 317 310 309 305 303 315 321 316 317 321 319 309 306 308 312 320 330 327 307 301 308 315 320 323 321 316 315 316 316 314 312 312 310 312 316 313 311 311 309 308 307 305 305 303 301 301 300
41 285 280 276 276 112 80 32 36 43 50 95 132 140 136 150 169 224 271 249 176 240 228 227 266 276 229 180 205 231 13 18 9 358 341 330 325 321 318 313 306 302 300 301 309 314 315 318 320 316 311 311 313 317 323 329 324 308 304 314 320 321 321 320 317 317 316 313 311 311 311 312 316 317 314 313 311 310 310 309 309 309 306 305 306 304
48 225 256 272 264 138 111 11 38 41 30 54 178 167 162 172 172 178 235 347 278 243 233 219 252 267 212 190 213 277 357 1 357 351 338 326 320 316 314 310 303 299 297 301 310 313 313 315 315 315 316 313 312 318 322 322 323 321 317 317 318 319 319 319 320 319 315 312 312 313 315 318 319 317 316 313 311 312 315 316 316 314 312 312 311 309
296 209 288 307 310 318 335 332 354 24 11 247 210 181 176 150 119 105 109 78 342 224 201 209 258 259 238 224 257 314 341 343 342 339 332 322 315 311 311 308 301 297 297 301 311 315 312 314 317 319 319 311 311 320 320 314 316 319 320 318 315 314 315 317 321 320 316 314 315 318 321 322 321 317 315 313 314 318 321 322 322 320 319 317 314 312
255 280 300 324 329 325 322 311 311 332 296 254 172 166 173 155 150 149 145 161 247 225 198 214 263 273 283 287 295 315 325 325 328 327 322 316 311 308 308 307 302 299 299 301 307 311 311 315 320 321 317 313 319 327 320 310 307 310 316 319 312 309 311 314 319 319 317 316 317 320 323 322 319 315 314 316 319 323 325 325 325 324 322 321 319 316
233 278 244 233 247 264 278 281 294 316 298 281 228 183 178 173 176 164 148 217 225 233 234 236 253 275 288 293 299 307 311 313 315 315 316 315 312 310 308 308 302 300 301 301 302 304 305 311 319 319 308 307 321 325 311 301 298 301 311 317 312 310 311 311 315 318 318 319 320 322 323 321 318 316 317 320 322 325 326 326 326 325 324 324 323 320
240 267 238 230 247 254 270 279 287 294 277 269 260 209 182 178 181 174 203 228 222 336 271 247 235 268 286 293 299 303 306 309 307 309 313 313 311 309 309 307 301 299 300 300 301 303 303 312 323 321 311 308 311 306 299 296 296 301 310 313 311 311 310 310 315 319 319 319 321 324 323 321 320 320 320 322 324 325 325 325 324 324 325 326 325 324
160 257 230 186 261 268 274 275 275 271 260 257 256 234 198 184 186 196 221 233 217 229 258 265 270 276 282 289 293 297 303 305 300 302 306 307 308 308 307 303 298 297 298 298 301 303 303 313 324 321 314 313 306 293 293 298 303 310 313 313 312 311 311 312 315 317 319 319 321 324 323 320 321 323 323 322 323 323 323 324 324 324 325 328 327 325
169 246 242 246 276 280 276 272 267 258 258 257 251 246 231 205 198 209 229 234 226 237 254 272 281 276 275 282 286 289 296 298 295 296 298 301 305 306 303 298 294 293 293 294 300 302 302 312 322 319 312 313 310 302 299 303 311 314 311 310 311 312 313 314 313 315 318 319 318 319 319 320 321 324 325 323 320 320 322 324 324 324 327 328 326 326
184 255 34 260 292 289 275 265 255 248 261 269 265 252 241 234 223 223 232 233 233 247 255 265 273 274 272 269 268 276 290 296 294 291 293 297 301 301 296 292 290 288 288 293 299 303 304 309 317 316 309 305 305 303 302 306 310 308 305 306 309 313 315 314 312 314 316 315 314 316 319 321 321 323 326 323 318 319 322 325 326 326 327 327 326 325
173 285 330 10 309 290 285 292 282 280 281 276 275 265 243 239 237 227 225 214 213 238 256 263 267 272 274 261 259 275 289 291 290 290 291 293 296 295 290 286 285 283 286 294 300 304 307 308 313 317 313 303 300 301 304 308 308 306 306 308 311 316 318 315 314 315 315 316 317 319 322 322 320 321 325 324 320 319 323 327 327 327 327 327 325 323
134 307 320 357 300 278 314 328 305 305 311 283 265 251 230 229 236 237 237 223 214 225 250 259 256 265 283 287 282 288 290 288 291 291 289 290 292 292 286 279 278 281 287 295 301 305 307 307 312 316 313 305 304 305 306 306 305 304 306 310 314 317 318 317 318 317 316 318 319 321 323 322 320 321 323 324 321 320 325 329 329 329 329 327 325 324
119 131 294 312 283 285 312 319 310 321 333 299 251 201 206 222 237 242 243 236 223 218 227 246 260 274 284 283 281 286 289 289 291 289 286 287 289 287 280 273 274 282 289 294 299 303 304 307 312 314 310 306 307 308 306 304 302 303 307 312 314 317 319 320 320 320 319 320 321 322 323 323 323 322 323 324 321 322 328 331 331 332 329 327 327 325
147 178 242 213 231 279 309 327 336 328 283 220 162 58 43 306 275 272 270 259 242 238 245 253 265 272 273 273 276 283 289 290 288 284 284 287 286 278 268 267 274 283 289 292 295 298 301 307 314 316 313 310 310 310 306 304 304 306 311 315 316 319 322 322 322 322 322 322 323 324 324 324 324 323 324 325 322 323 330 333 334 334 330 327 328 326
151 181 262 246 224 265 315 356 325 289 293 273 131 76 49 26 353 319 292 270 238 236 251 255 260 266 268 270 273 281 290 292 286 280 283 287 280 265 260 267 277 283 285 288 291 295 302 308 313 315 315 314 315 313 309 310 312 313 316 319 320 322 325 325 325 325 324 324 326 326 325 324 324 324 325 327 325 324 328 332 334 333 328 326 326 327
161 153 161 241 223 241 305 285 245 280 299 317 145 189 143 132 108 103 292 281 243 224 238 246 256 261 260 266 274 283 294 298 291 285 282 273 255 254 263 272 277 280 282 287 292 296 304 310 314 317 318 317 318 318 317 318 318 316 318 323 325 327 328 328 328 327 325 326 327 326 325 325 325 325 326 327 327 325 325 327 330 331 327 323 322 326
173 246 118 185 256 76 321 296 299 300 289 257 210 171 121 103 88 99 330 292 270 224 226 230 244 249 251 266 274 282 303 309 297 281 262 244 247 262 273 276 278 280 282 287 294 300 306 311 314 318 319 316 316 319 320 321 319 317 322 328 330 331 331 329 328 328 327 327 327 326 326 326 326 325 324 326 327 325 324 324 325 325 323 321 320 323
289 307 63 163 270 311 306 279 276 279 271 229 163 132 112 108 106 102 27 295 280 209 213 214 227 239 245 257 257 247 320 301 288 278 259 258 269 275 279 283 284 284 284 288 295 301 305 308 312 317 320 320 320 322 323 322 321 322 327 331 332 332 331 330 330 330 328 328 327 326 326 326 325 323 321 323 325 324 324 324 323 321 321 322 321 321
196 246 182 194 243 234 208 246 250 255 267 227 147 139 125 126 126 93 332 300 226 191 204 208 223 237 242 246 238 194 194 249 276 292 281 275 281 283 286 290 289 286 286 289 295 300 303 307 311 316 320 320 319 322 325 325 325 329 333 334 333 332 332 332 332 331 329 328 327 327 327 325 322 319 320 322 323 324 326 325 322 321 320 320 320 322
185 200 196 204 246 229 211 249 269 257 260 204 138 142 141 132 110 2 312 288 209 209 223 224 233 243 243 236 224 218 240 259 272 280 275 275 282 286 289 291 289 289 289 290 293 297 299 303 307 312 316 315 314 319 325 326 328 332 335 335 334 333 334 334 333 332 331 329 329 329 327 323 320 318 319 321 322 325 328 327 325 323 322 319 319 324
187 178 186 200 234 228 216 236 271 275 251 148 136 145 151 137 345 282 276 294 275 258 258 248 245 250 247 238 236 244 260 270 273 272 273 276 281 286 289 289 288 289 290 290 293 295 297 300 304 306 310 313 315 319 324 327 330 335 335 335 336 336 336 335 335 334 334 332 330 328 325 323 320 317 318 322 325 326 329 331 328 325 324 321 320 325
172 156 210 213 197 207 239 245 282 294 218 151 138 131 162 191 266 277 284 298 292 281 275 263 258 260 255 250 253 258 266 272 272 272 275 278 281 285 288 289 289 289 289 289 290 292 295 298 301 304 309 315 316 317 322 326 330 333 335 336 337 337 336 336 336 337 338 335 331 328 326 324 321 317 319 326 329 328 330 332 330 327 325 323 322 326
184 179 218 229 173 164 224 212 220 262 175 165 169 217 235 242 269 282 285 287 284 281 276 268 266 269 263 259 263 265 266 271 273 274 276 278 280 284 285 287 289 289 288 289 289 290 292 295 298 303 309 312 312 314 320 325 327 331 335 336 336 336 337 338 338 340 341 337 332 331 330 327 322 320 326 333 333 331 332 332 330 330 329 327 329 335
207 182 169 251 219 199 240 248 256 277 247 207 224 255 266 269 278 281 276 275 277 278 275 271 272 273 268 264 266 266 267 272 275 275 277 278 280 282 284 286 288 288 288 287 286 288 289 291 295 300 303 306 308 312 318 321 323 328 333 334 334 336 337 338 340 341 341 340 338 336 333 329 327 329 335 339 336 335 339 341 338 338 337 337 343 351
207 173 137 189 248 272 273 263 260 270 273 261 257 266 273 278 281 280 274 272 276 279 277 275 275 275 271 267 265 266 270 275 276 277 277 278 280 281 283 285 287 288 288 286 285 287 288 289 292 294 299 304 306 309 315 319 321 325 329 330 332 335 337 339 341 343 343 343 342 341 336 333 337 342 344 343 341 341 348 352 348 345 347 350 354 359
194 171 184 234 245 338 279 259 248 260 271 274 275 276 277 279 281 279 275 274 279 282 279 277 277 275 271 267 266 269 274 275 275 276 277 277 279 280 281 284 286 288 288 286 284 284 284 286 289 292 296 301 303 307 313 317 320 322 325 328 331 334 337 340 342 344 346 347 347 346 344 344 348 352 350 348 349 351 354 354 349 347 353 357 355 355
165 149 206 241 215 218 260 272 277 278 280 284 285 281 279 281 281 280 280 280 282 283 280 278 277 273 271 270 270 271 273 274 274 275 276 276 278 279 280 283 285 287 288 286 283 281 281 284 287 289 293 297 300 304 309 314 318 319 322 326 330 332 336 341 344 346 348 351 352 353 353 354 356 359 357 356 356 356 355 353 351 348 349 352 349 345
139 162 211 235 243 254 268 274 278 280 283 288 291 288 288 289 288 285 284 283 282 282 281 279 278 276 274 275 273 270 270 272 274 274 274 274 276 278 279 282 283 284 285 285 283 280 280 281 283 285 288 292 295 298 303 309 313 315 319 324 326 329 335 340 345 350 351 354 358 359 359 1 2 2 1 0 360 358 355 355 354 346 339 340 341 335
163 226 237 236 277 268 265 273 281 288 288 292 297 298 297 296 294 289 286 284 285 286 284 281 279 278 276 275 273 269 269 272 273 273 272 273 275 277 279 280 280 281 284 285 283 280 279 279 280 282 284 287 290 293 298 304 307 310 315 319 322 326 332 337 343 350 355 359 3 3 2 5 4 1 360 359 359 357 355 358 1 352 336 333 335 331
210 229 208 192 244 262 274 284 292 295 287 289 296 299 298 298 297 292 289 289 289 289 287 282 279 278 276 276 275 271 270 273 273 270 269 271 273 275 276 277 278 279 282 283 282 281 280 279 278 279 281 283 286 289 293 298 302 305 310 314 318 323 328 332 337 345 354 2 5 2 1 3 2 358 356 357 358 356 353 354 1 7 0 348 340 333